TimeEST,TemperatureF,Dew PointF,Humidity,Sea Level PressureIn,VisibilityMPH,Wind Direction,Wind SpeedMPH,Gust SpeedMPH,PrecipitationIn,Events,Conditions,WindDirDegrees,DateUTC
12:18 AM,26.6,19.4,74,30.07,7.0,NW,8.1,16.1,0.00,Snow,Light Snow,320,2013-01-26 05:18:00
12:25 AM,26.6,19.4,74,30.07,5.0,Variable,6.9,-,0.00,Snow,Light Snow,0,2013-01-26 05:25:00
12:53 AM,26.1,17.1,69,30.11,5.0,NW,9.2,19.6,0.00,Snow,Light Snow,320,2013-01-26 05:53:00
1:36 AM,26.6,17.6,69,30.10,10.0,NW,10.4,19.6,0.00,,Overcast,320,2013-01-26 06:36:00
1:44 AM,26.6,15.8,64,30.11,10.0,NW,8.1,18.4,0.00,,Overcast,310,2013-01-26 06:44:00
1:53 AM,26.1,17.1,69,30.14,6.0,WNW,11.5,16.1,0.00,Snow,Light Snow,300,2013-01-26 06:53:00
2:25 AM,26.6,15.8,64,30.12,8.0,Variable,6.9,17.3,0.00,Snow,Light Snow,0,2013-01-26 07:25:00
2:53 AM,26.1,17.1,69,30.16,8.0,WNW,10.4,17.3,0.00,,Overcast,290,2013-01-26 07:53:00
3:00 AM,26.6,17.6,69,30.13,7.0,NW,8.1,-,0.00,Snow,Light Snow,320,2013-01-26 08:00:00
3:53 AM,26.1,16.0,66,30.18,10.0,NW,9.2,-,0.00,,Overcast,310,2013-01-26 08:53:00
4:09 AM,26.6,15.8,64,30.15,10.0,NW,8.1,16.1,N/A,,Overcast,320,2013-01-26 09:09:00
4:19 AM,24.8,15.8,69,30.16,9.0,NW,9.2,19.6,N/A,,Overcast,320,2013-01-26 09:19:00
4:29 AM,24.8,15.8,69,30.16,10.0,Variable,5.8,-,N/A,,Overcast,0,2013-01-26 09:29:00
4:53 AM,25.0,15.1,66,30.19,9.0,NNW,8.1,-,N/A,,Overcast,330,2013-01-26 09:53:00
5:39 AM,24.8,14.0,64,30.19,10.0,WNW,11.5,17.3,N/A,,Overcast,300,2013-01-26 10:39:00
5:53 AM,25.0,14.0,63,30.22,10.0,NW,10.4,17.3,N/A,,Overcast,320,2013-01-26 10:53:00
6:53 AM,24.1,15.1,69,30.25,10.0,Variable,4.6,-,N/A,,Overcast,0,2013-01-26 11:53:00
7:37 AM,24.8,14.0,64,30.23,10.0,Variable,6.9,-,N/A,,Overcast,0,2013-01-26 12:37:00
7:46 AM,24.8,15.8,69,30.23,10.0,Variable,4.6,-,N/A,,Overcast,0,2013-01-26 12:46:00
7:53 AM,25.0,15.1,66,30.27,10.0,North,5.8,-,N/A,,Overcast,350,2013-01-26 12:53:00
8:22 AM,24.8,14.0,64,30.24,10.0,Variable,4.6,-,N/A,,Overcast,0,2013-01-26 13:22:00
8:29 AM,24.8,14.0,64,30.25,10.0,Variable,3.5,-,N/A,,Overcast,0,2013-01-26 13:29:00
8:53 AM,26.1,15.1,63,30.29,10.0,Variable,4.6,-,N/A,,Overcast,0,2013-01-26 13:53:00
9:38 AM,26.6,15.8,64,30.28,10.0,Variable,4.6,-,N/A,,Overcast,0,2013-01-26 14:38:00
9:53 AM,26.1,15.1,63,30.32,10.0,Variable,3.5,-,N/A,,Overcast,0,2013-01-26 14:53:00
10:45 AM,24.8,17.6,74,30.32,4.0,East,5.8,-,0.00,Snow,Light Snow,80,2013-01-26 15:45:00
10:53 AM,25.0,18.0,75,30.35,2.5,East,4.6,-,0.00,Snow,Light Snow,100,2013-01-26 15:53:00
11:01 AM,24.8,17.6,74,30.33,4.0,East,4.6,-,0.00,Snow,Light Snow,100,2013-01-26 16:01:00
11:24 AM,24.8,19.4,80,30.34,2.5,East,3.5,-,0.00,Snow,Light Snow,100,2013-01-26 16:24:00
11:51 AM,24.8,19.4,80,30.34,3.0,Calm,Calm,-,0.00,Snow,Light Snow,0,2013-01-26 16:51:00
11:53 AM,25.0,19.0,78,30.38,3.0,SE,3.5,-,0.00,Snow,Light Snow,130,2013-01-26 16:53:00
12:06 PM,24.8,19.4,80,30.34,2.5,SE,3.5,-,0.00,Snow,Light Snow,140,2013-01-26 17:06:00
12:16 PM,24.8,19.4,80,30.34,5.0,ESE,3.5,-,0.00,Snow,Light Snow,110,2013-01-26 17:16:00
12:27 PM,26.6,19.4,74,30.34,9.0,Calm,Calm,-,0.00,,Overcast,0,2013-01-26 17:27:00
12:53 PM,26.1,19.0,75,30.37,10.0,Calm,Calm,-,0.00,,Overcast,0,2013-01-26 17:53:00
1:53 PM,28.0,16.0,61,30.36,10.0,Calm,Calm,-,N/A,,Overcast,0,2013-01-26 18:53:00
2:53 PM,27.0,19.0,72,30.37,5.0,WNW,5.8,-,0.00,Snow,Light Snow,300,2013-01-26 19:53:00
3:53 PM,27.0,17.1,66,30.38,10.0,Calm,Calm,-,0.00,,Overcast,0,2013-01-26 20:53:00
4:53 PM,27.0,15.1,61,30.40,10.0,Variable,3.5,-,N/A,,Overcast,0,2013-01-26 21:53:00
5:16 PM,26.6,15.8,64,30.38,10.0,NW,4.6,-,N/A,,Overcast,320,2013-01-26 22:16:00
5:53 PM,27.0,18.0,69,30.41,10.0,Calm,Calm,-,N/A,,Overcast,0,2013-01-26 22:53:00
6:53 PM,27.0,18.0,69,30.42,10.0,Calm,Calm,-,N/A,,Overcast,0,2013-01-26 23:53:00
7:53 PM,26.1,18.0,71,30.41,10.0,Calm,Calm,-,N/A,,Overcast,0,2013-01-27 00:53:00
8:53 PM,26.1,17.1,69,30.41,10.0,SE,3.5,-,N/A,,Scattered Clouds,130,2013-01-27 01:53:00
9:53 PM,24.1,16.0,71,30.42,10.0,ESE,4.6,-,N/A,,Clear,120,2013-01-27 02:53:00
10:53 PM,24.1,15.1,69,30.45,10.0,Calm,Calm,-,N/A,,Clear,0,2013-01-27 03:53:00
11:53 PM,21.9,15.1,75,30.45,10.0,East,3.5,-,N/A,,Clear,100,2013-01-27 04:53:00